TimeEST,TemperatureF,Dew PointF,Humidity,Sea Level PressureIn,VisibilityMPH,Wind Direction,Wind SpeedMPH,Gust SpeedMPH,PrecipitationIn,Events,Conditions,WindDirDegrees,DateUTC
12:56 AM,28.0,-6.0,23,30.51,10.0,Calm,Calm,-,N/A,,Clear,0,2013-01-19 05:56:00
1:56 AM,26.1,-8.0,22,30.52,10.0,Calm,Calm,-,N/A,,Clear,0,2013-01-19 06:56:00
2:56 AM,27.0,-6.0,24,30.51,10.0,Calm,Calm,-,N/A,,Clear,0,2013-01-19 07:56:00
3:56 AM,27.0,-7.1,23,30.50,10.0,Calm,Calm,-,N/A,,Clear,0,2013-01-19 08:56:00
4:56 AM,25.0,-8.0,23,30.48,10.0,Calm,Calm,-,N/A,,Clear,0,2013-01-19 09:56:00
5:56 AM,26.1,-7.1,23,30.47,10.0,Calm,Calm,-,N/A,,Clear,0,2013-01-19 10:56:00
6:56 AM,27.0,24.1,89,30.46,10.0,South,3.5,-,N/A,,Clear,180,2013-01-19 11:56:00
7:56 AM,27.0,19.8,74,30.47,10.0,SW,4.6,-,N/A,,Clear,230,2013-01-19 12:56:00
8:56 AM,35.1,25.3,68,30.48,10.0,WSW,4.6,-,N/A,,Clear,240,2013-01-19 13:56:00
9:56 AM,41.0,25.2,53,30.48,10.0,WSW,9.2,-,N/A,,Clear,240,2013-01-19 14:56:00
10:56 AM,46.0,27.9,49,30.45,10.0,SW,9.2,-,N/A,,Clear,230,2013-01-19 15:56:00
11:56 AM,48.9,29.3,47,30.39,10.0,SW,9.2,-,N/A,,Clear,230,2013-01-19 16:56:00
12:56 PM,52.0,32.0,47,30.34,10.0,SW,11.5,-,N/A,,Clear,230,2013-01-19 17:56:00
1:56 PM,54.0,33.8,46,30.30,10.0,SW,10.4,-,N/A,,Clear,230,2013-01-19 18:56:00
2:56 PM,55.0,39.4,56,30.26,10.0,SSW,15.0,-,N/A,,Clear,210,2013-01-19 19:56:00
3:56 PM,55.9,41.9,59,30.24,10.0,SSW,13.8,20.7,N/A,,Clear,200,2013-01-19 20:56:00
4:56 PM,54.0,41.9,64,30.23,10.0,SSW,10.4,-,N/A,,Clear,210,2013-01-19 21:56:00
5:56 PM,50.0,42.3,75,30.22,10.0,SSW,8.1,-,N/A,,Partly Cloudy,200,2013-01-19 22:56:00
6:56 PM,48.9,37.0,64,30.22,10.0,South,5.8,-,N/A,,Clear,190,2013-01-19 23:56:00
7:56 PM,46.9,37.2,69,30.22,10.0,South,6.9,-,N/A,,Clear,190,2013-01-20 00:56:00
8:56 PM,46.9,36.3,67,30.20,10.0,SSW,8.1,-,N/A,,Clear,200,2013-01-20 01:56:00
9:56 PM,46.8,36.9,68,30.19,10.0,SSW,9.2,-,N/A,,Clear,210,2013-01-20 02:56:00
10:56 PM,46.2,35.6,66,30.16,10.0,SSW,6.9,-,N/A,,Partly Cloudy,210,2013-01-20 03:56:00
11:56 PM,45.0,35.8,70,30.13,10.0,SW,4.6,-,N/A,,Scattered Clouds,220,2013-01-20 04:56:00